Waarnemingen

Advertentie
Mijn weer
Auch, Frankrijk (7622): temperatuur & dauwpunt: 09.10.2019 21:00:00 - 15.10.2019 21:00:00 (CEST)Auch, Frankrijk (7622): temperatuur 5cm: 09.10.2019 21:00:00 - 15.10.2019 21:00:00 (CEST)Auch, Frankrijk (7622): temperatuur -20cm & temperatuur -100cm: 09.10.2019 21:00:00 - 15.10.2019 21:00:00 (CEST)Auch, Frankrijk (7622): windsnelheid & windstoten: 09.10.2019 21:00:00 - 15.10.2019 21:00:00 (CEST)Auch, Frankrijk (7622): windrichting: 09.10.2019 21:00:00 - 15.10.2019 21:00:00 (CEST)Auch, Frankrijk (7622): luchtdruk: 09.10.2019 21:00:00 - 15.10.2019 21:00:00 (CEST)Auch, Frankrijk (7622): zicht: 09.10.2019 21:00:00 - 15.10.2019 21:00:00 (CEST)Auch, Frankrijk (7622): Zonneschijnduur: 09.10.2019 21:00:00 - 15.10.2019 21:00:00 (CEST)Auch, Frankrijk (7622): neerslag: 09.10.2019 21:00:00 - 15.10.2019 21:00:00 (CEST)
Datum & Tijd tt [°C] td [°C] tt 5cm [°C] tt -20cm [°C] tt -100cm [°C] ff [km/u] ff [kn] fx [km/u] fx [kn] dd ppp [hPa] vv [km] sd [min] rr [mm]
15.10.2019 21:00:00 12,8 9,2 10,2 17,9 18,9 0 0 5 3 N 1019,1 20 0 0,0
15.10.2019 20:00:00 14,5 8,2 11,8 17,9 18,9 2 1 23 12 ZZW 1019,0 20 0 0,0
15.10.2019 19:00:00 15,7 8,2 15,2 17,9 18,9 11 6 39 21 WZW 1018,3 20 8 0,0
15.10.2019 18:00:00 16,6 8,3 17,9 17,8 18,9 24 13 44 24 WZW 1017,4 20 60 0,0
15.10.2019 17:00:00 17,5 8,1 18,3 17,8 18,9 22 12 40 21 WZW 1017,2 20 50 0,0
15.10.2019 16:00:00 17,1 8,0 17,8 17,7 18,9 20 11 40 22 WZW 1017,1 20 28 0,0
15.10.2019 15:00:00 17,7 8,5 17,8 17,7 18,9 21 11 44 24 WZW 1017,2 20 40 0,0
15.10.2019 14:00:00 17,0 9,2 18,0 17,7 18,9 22 12 45 25 WZW 1017,3 20 48 0,0
15.10.2019 13:00:00 16,6 8,5 15,5 17,7 18,9 21 12 39 21 WZW 1017,3 20 36 0,0
15.10.2019 12:00:00 14,3 8,5 13,4 17,8 18,9 23 12 52 28 WZW 1017,5 20 25 0,0
15.10.2019 11:00:00 14,0 8,2 14,3 17,9 18,9 19 10 41 22 WZW 1017,0 20 34 0,0
15.10.2019 10:00:00 13,0 8,9 11,3 18,0 18,9 17 9 35 19 WZW 1016,2 20 46 0,0
15.10.2019 09:00:00 11,5 8,7 10,7 18,1 18,9 13 7 39 21 ZW 1015,5 20 0 0,0
15.10.2019 08:00:00 11,7 8,5 10,4 18,2 18,9 15 8 34 19 WZW 1014,7 20 0 0,0
15.10.2019 07:00:00 11,3 9,0 10,4 18,3 18,9 8 5 27 15 ZW 1014,2 20 0 0,2
15.10.2019 06:00:00 11,7 8,7 11,1 18,4 18,9 13 7 35 19 W 1014,2 20 0 0,0
15.10.2019 05:00:00 12,3 9,5 11,7 18,6 18,9 21 11 44 24 WZW 1013,4 20 0 0,0
15.10.2019 04:00:00 12,6 10,7 12,0 18,7 18,9 12 6 30 16 W 1012,6 20 0 0,2
15.10.2019 03:00:00 12,8 11,2 12,0 18,8 18,9 12 6 31 17 WNW 1012,2 9 0 1,0
15.10.2019 02:00:00 13,2 11,3 12,2 18,8 18,9 4 2 16 9 NNW 1012,0 20 0 0,4
15.10.2019 01:00:00 13,7 11,4 12,6 18,9 18,9 3 1 26 14 Z 1011,9 20 0 0,4
15.10.2019 00:00:00 14,6 12,5 13,5 18,9 18,9 14 8 31 17 W 1011,3 20 0 0,0
14.10.2019 23:00:00 14,6 13,5 12,9 19,0 18,9 5 3 14 8 WZW 1010,4 20 0 0,0
14.10.2019 22:00:00 15,3 14,0 14,4 19,0 18,9 2 1 11 6 WNW 1009,4 10 0 1,8
14.10.2019 21:00:00 15,7 13,9 14,8 19,0 18,9 6 4 39 21 NNW 1008,9 20 0 1,0
14.10.2019 20:00:00 17,8 13,5 17,4 19,0 18,9 17 9 41 22 WNW 1009,2 20 0 0,0
14.10.2019 19:00:00 20,7 13,4 20,1 19,0 18,9 29 15 52 28 NW 1007,7 20 4 0,0
14.10.2019 18:00:00 23,5 13,1 22,4 18,9 18,9 12 7 24 13 ZZO 1006,1 20 2 0,0
14.10.2019 17:00:00 22,6 16,6 22,6 18,8 18,8 10 5 34 18 ZO 1006,6 20 0 0,0
14.10.2019 16:00:00 23,0 16,5 22,2 18,8 18,9 12 6 27 14 ZO 1007,6 20 0 0,0
14.10.2019 15:00:00 23,4 16,9 22,1 18,8 18,9 5 3 22 12 ZZO 1008,6 19 0 0,0
14.10.2019 14:00:00 22,9 15,7 22,8 18,8 18,9 11 6 35 19 ZZO 1008,7 20 0 0,0
14.10.2019 13:00:00 22,2 15,5 21,4 18,8 18,9 14 7 47 26 ZZO 1008,3 20 0 0,0
14.10.2019 12:00:00 21,4 15,7 20,5 18,8 18,8 23 12 43 23 ZO 1007,9 20 0 0,0
14.10.2019 11:00:00 20,7 15,7 20,3 18,8 18,9 18 10 44 24 ZZO 1008,8 20 0 0,0
14.10.2019 10:00:00 20,3 15,7 19,8 18,8 18,8 21 11 44 24 ZZO 1009,1 20 49 0,0
14.10.2019 09:00:00 19,1 15,6 17,5 18,9 18,8 21 11 43 23 ZZO 1009,1 20 29 0,0
14.10.2019 08:00:00 18,4 15,5 17,3 19,0 18,9 21 11 48 26 ZO 1009,0 20 0 0,0
14.10.2019 07:00:00 18,3 15,5 17,4 19,1 18,9 18 10 50 27 ZZO 1009,6 20 0 0,0
14.10.2019 06:00:00 18,2 15,6 16,4 19,2 18,9 11 6 26 14 ZO 1010,1 20 0 0,0
14.10.2019 05:00:00 18,3 15,7 14,2 19,3 18,8 8 5 22 12 ZZO 1010,5 20 0 0,0
14.10.2019 04:00:00 18,0 15,6 16,4 19,3 18,8 9 5 24 13 ZZW 1011,2 20 0 0,0
14.10.2019 03:00:00 18,7 16,3 16,3 19,4 18,8 10 5 22 12 Z 1011,3 20 0 0,0
14.10.2019 02:00:00 18,6 16,2 16,8 19,5 18,9 5 3 20 11 OZO 1011,3 20 0 0,0
14.10.2019 01:00:00 18,5 16,1 17,0 19,6 18,9 3 2 19 10 ONO 1011,6 20 0 0,0
14.10.2019 00:00:00 18,9 16,3 17,7 19,6 18,9 4 2 18 10 ZZO 1012,3 20 0 0,0
13.10.2019 23:00:00 19,6 16,4 18,8 19,6 18,8 7 4 21 11 OZO 1012,9 20 0 0,0
13.10.2019 22:00:00 20,2 16,8 19,6 19,6 18,8 7 4 21 11 OZO 1012,8 20 0 0,0
13.10.2019 21:00:00 20,6 17,0 19,9 19,6 18,8 9 5 24 13 OZO 1012,7 20 0 0,0
13.10.2019 20:00:00 21,0 16,8 20,1 19,5 18,9 9 5 25 14 ZO 1012,7 20 0 0,0
13.10.2019 19:00:00 22,7 16,9 22,3 19,4 18,9 14 8 31 17 OZO 1012,2 20 32 0,0
13.10.2019 18:00:00 25,3 17,0 26,9 19,2 18,9 11 6 34 19 O 1011,9 20 54 0,0
13.10.2019 17:00:00 26,8 16,7 29,4 19,0 18,8 18 10 35 19 OZO 1011,4 20 60 0,0
13.10.2019 16:00:00 29,1 16,6 32,4 18,8 18,8 16 8 35 19 OZO 1010,9 20 60 0,0
13.10.2019 15:00:00 29,2 16,0 31,8 18,7 18,8 16 8 36 19 OZO 1011,0 20 60 0,0
13.10.2019 14:00:00 28,6 15,5 31,1 18,5 18,8 15 8 30 16 ZO 1011,7 20 60 0,0
13.10.2019 13:00:00 27,0 16,0 29,0 18,4 18,8 16 8 32 18 OZO 1012,4 20 60 0,0
13.10.2019 12:00:00 25,1 16,0 26,4 18,4 18,9 17 9 36 20 ZO 1012,5 20 60 0,0
13.10.2019 11:00:00 22,8 16,1 23,5 18,4 18,9 21 12 39 21 ZO 1012,7 20 60 0,0
13.10.2019 10:00:00 21,1 16,3 19,1 18,4 18,9 13 7 35 19 ZZO 1012,7 20 60 0,0
13.10.2019 09:00:00 19,2 15,9 18,6 18,4 18,8 16 9 39 21 ZZO 1012,2 20 21 0,0
13.10.2019 08:00:00 19,0 16,0 18,2 18,5 18,9 18 10 40 22 ZO 1011,8 20 0 0,0
13.10.2019 07:00:00 18,9 15,9 17,8 18,6 18,9 10 5 26 14 ZZO 1012,4 20 0 0,0
13.10.2019 06:00:00 18,7 15,9 17,6 18,6 18,9 12 7 23 13 ZZO 1012,2 20 0 0,0
13.10.2019 05:00:00 19,3 16,1 18,1 18,6 18,9 9 5 30 16 ZO 1012,1 20 0 0,0
13.10.2019 04:00:00 19,3 16,3 18,3 18,7 18,9 13 7 31 17 ZZO 1012,8 20 0 0,0
13.10.2019 03:00:00 19,3 16,3 18,2 18,7 18,9 6 4 20 11 ZZO 1013,4 20 0 0,0
13.10.2019 02:00:00 19,8 16,6 18,0 18,8 18,9 9 5 22 12 ZO 1013,4 20 0 0,0
13.10.2019 01:00:00 19,2 16,4 17,9 18,8 18,9 6 4 18 10 ZZO 1013,7 20 0 0,0
13.10.2019 00:00:00 19,3 16,3 18,0 18,8 18,9 6 3 24 13 ZZO 1013,9 20 0 0,0
12.10.2019 23:00:00 19,8 16,6 18,2 18,8 18,9 10 5 30 16 ZO 1013,9 20 0 0,0
12.10.2019 22:00:00 20,6 16,4 19,8 18,8 18,9 12 7 36 19 ZO 1013,8 20 0 0,0
12.10.2019 21:00:00 21,2 16,2 19,9 18,7 18,9 5 3 26 14 ZO 1013,8 20 0 0,0
12.10.2019 20:00:00 22,2 16,5 21,0 18,7 18,9 10 5 29 16 ZO 1013,7 20 0 0,0
12.10.2019 19:00:00 23,4 16,7 23,0 18,5 18,9 11 6 31 17 ZO 1013,6 20 51 0,0
12.10.2019 18:00:00 25,4 16,5 26,6 18,3 18,9 15 8 43 23 ZO 1013,2 20 58 0,0
12.10.2019 17:00:00 27,2 16,5 27,7 18,1 18,9 16 9 33 18 ZO 1013,2 20 50 0,0
12.10.2019 16:00:00 27,0 16,3 28,2 17,9 18,9 16 9 26 14 ZO 1013,5 20 29 0,0
12.10.2019 15:00:00 26,4 16,6 27,8 17,7 18,9 12 7 21 11 ZO 1014,2 20 21 0,0
12.10.2019 14:00:00 26,2 16,2 28,7 17,5 18,9 15 8 24 13 ZZO 1014,4 18 34 0,0
12.10.2019 13:00:00 24,7 16,4 25,3 17,4 18,9 7 4 27 14 OZO 1015,0 20 33 0,0
12.10.2019 12:00:00 22,7 16,3 21,5 17,4 18,9 12 6 26 14 ZZO 1015,1 20 19 0,0
12.10.2019 11:00:00 20,6 16,0 20,6 17,4 19,0 11 6 28 15 ZZO 1015,3 20 17 0,0
12.10.2019 10:00:00 19,1 15,8 17,1 17,4 19,0 9 5 19 11 ZZO 1014,9 20 0 0,0
12.10.2019 09:00:00 17,4 15,0 16,4 17,4 19,0 4 2 15 8 Z 1014,7 20 0 0,0
12.10.2019 08:00:00 17,9 15,0 16,8 17,4 19,0 8 5 24 13 ZZO 1013,9 20 0 0,0
12.10.2019 07:00:00 18,0 14,7 17,3 17,5 19,0 11 6 23 12 ZO 1013,7 20 0 0,0
12.10.2019 06:00:00 18,0 14,7 16,7 17,5 19,0 10 5 24 13 ZZO 1014,4 20 0 0,0
12.10.2019 05:00:00 17,5 14,2 16,0 17,5 19,0 9 5 19 11 ZZO 1014,2 20 0 0,0
12.10.2019 04:00:00 17,3 14,0 16,1 17,6 19,0 6 3 21 11 ZO 1014,5 20 0 0,0
12.10.2019 03:00:00 17,4 13,9 16,1 17,6 19,0 7 4 16 9 OZO 1015,1 20 0 0,0
12.10.2019 02:00:00 17,4 13,7 15,2 17,7 19,0 7 4 16 9 OZO 1015,7 20 0 0,0
12.10.2019 01:00:00 17,2 13,3 15,8 17,7 19,0 4 2 17 9 ZO 1016,1 20 0 0,0
12.10.2019 00:00:00 17,3 12,8 16,3 17,7 19,0 10 6 23 12 ZZO 1016,5 20 0 0,0
11.10.2019 23:00:00 17,6 12,5 16,6 17,8 19,0 12 6 29 16 ZZO 1016,6 20 0 0,0
11.10.2019 22:00:00 18,3 12,5 17,3 17,8 19,1 13 7 32 17 ZZO 1016,4 20 0 0,0
11.10.2019 21:00:00 19,6 12,8 18,0 17,7 19,0 8 5 21 11 ZZO 1016,2 20 0 0,0
11.10.2019 20:00:00 21,8 13,4 16,9 17,5 19,0 3 2 16 9 ZO 1015,8 20 0 0,0
11.10.2019 19:00:00 25,0 12,6 24,5 17,4 19,0 8 5 22 12 ZO 1015,5 20 60 0,0
11.10.2019 18:00:00 27,3 11,7 29,1 17,1 19,0 12 6 24 13 ZO 1015,4 20 60 0,0
11.10.2019 17:00:00 28,5 9,7 32,0 16,9 19,0 11 6 21 12 OZO 1015,2 20 60 0,0
11.10.2019 16:00:00 28,4 10,6 32,1 16,6 19,1 11 6 22 12 OZO 1015,8 18 60 0,0
11.10.2019 15:00:00 27,3 10,1 31,2 16,4 19,0 9 5 17 9 OZO 1016,4 20 60 0,0
11.10.2019 14:00:00 25,7 10,7 28,7 16,3 19,1 10 5 23 12 OZO 1017,6 20 60 0,0
11.10.2019 13:00:00 23,1 10,2 25,7 16,2 19,1 11 6 24 13 ZO 1018,3 20 60 0,0
11.10.2019 12:00:00 20,7 9,6 22,9 16,2 19,1 11 6 22 12 OZO 1018,9 20 60 0,0
11.10.2019 11:00:00 18,0 9,9 18,1 16,3 19,1 7 4 21 11 ZO 1019,2 20 60 0,0
11.10.2019 10:00:00 10,8 9,9 8,7 16,4 19,1 4 2 8 4 NNW 1019,5 20 60 0,0
11.10.2019 09:00:00 6,9 6,5 2,7 16,5 19,1 0 0 6 3 N 1019,5 20 30 0,0
11.10.2019 08:00:00 5,5 4,9 2,4 16,7 19,1 0 0 5 3 N 1019,5 20 0 0,0
11.10.2019 07:00:00 5,4 4,8 2,1 16,9 19,1 3 1 5 3 Z 1019,5 20 0 0,0
11.10.2019 06:00:00 5,8 5,2 2,5 17,0 19,1 0 0 5 3 N 1020,1 20 0 0,0
11.10.2019 05:00:00 6,1 5,7 2,0 17,2 19,1 2 1 4 2 ZZO 1020,7 18 0 0,0
11.10.2019 04:00:00 6,6 6,0 2,4 17,4 19,1 0 0 5 3 N 1021,3 20 0 0,0
11.10.2019 03:00:00 7,1 6,5 2,9 17,5 19,1 0 0 3 2 N 1021,8 20 0 0,0
11.10.2019 02:00:00 7,3 6,6 3,4 17,7 19,1 0 0 4 2 N 1022,2 20 0 0,2
11.10.2019 01:00:00 8,2 7,4 4,0 17,8 19,1 0 0 3 2 N 1022,5 20 0 0,0
11.10.2019 00:00:00 8,7 7,6 4,7 17,9 19,2 2 1 3 1 ZZW 1022,6 20 0 0,0
10.10.2019 23:00:00 9,3 7,7 5,1 18,0 19,1 0 0 4 2 N 1022,6 20 0 0,0
10.10.2019 22:00:00 9,9 8,0 6,0 18,1 19,2 2 1 4 2 ZZW 1022,7 20 0 0,0
10.10.2019 21:00:00 11,9 9,1 7,2 18,1 19,2 0 0 4 2 N 1022,5 20 0 0,0
10.10.2019 20:00:00 15,1 10,3 8,8 18,1 19,1 0 0 5 3 N 1022,1 20 1 0,0
10.10.2019 19:00:00 19,6 10,0 16,6 18,0 19,1 3 1 8 5 OZO 1021,7 20 20 0,0
10.10.2019 18:00:00 20,3 10,4 20,9 17,9 19,1 6 4 10 5 Z 1021,8 20 20 0,0
10.10.2019 17:00:00 20,2 9,4 21,0 17,8 19,2 0 0 10 5 N 1022,0 20 0 0,0
10.10.2019 16:00:00 20,5 9,7 21,0 17,5 19,1 5 3 16 9 W 1022,4 20 20 0,0
10.10.2019 15:00:00 19,6 10,8 21,2 17,4 19,2 8 5 16 9 NW 1022,8 20 26 0,0
10.10.2019 14:00:00 19,3 10,8 21,8 17,3 19,2 12 6 20 11 NW 1023,4 20 36 0,0
10.10.2019 13:00:00 19,3 11,1 22,7 17,2 19,2 6 4 21 11 WNW 1024,1 20 56 0,0
10.10.2019 12:00:00 18,1 12,8 18,4 17,2 19,2 7 4 15 8 W 1024,6 20 40 0,0
10.10.2019 11:00:00 15,6 12,5 15,7 17,3 19,2 9 5 19 10 Z 1024,9 20 27 0,0
10.10.2019 10:00:00 13,2 11,3 10,9 17,4 19,2 11 6 16 9 Z 1024,9 20 60 0,0
10.10.2019 09:00:00 9,8 9,3 6,4 17,5 19,2 7 4 9 5 Z 1024,6 20 31 0,0
10.10.2019 08:00:00 8,5 7,7 7,0 17,7 19,2 9 5 13 7 Z 1024,1 20 0 0,0
10.10.2019 07:00:00 9,0 8,4 7,6 17,8 19,2 10 5 12 6 Z 1023,7 20 0 0,0
10.10.2019 06:00:00 9,2 8,4 7,7 17,9 19,2 8 4 11 6 Z 1023,5 20 0 0,0
10.10.2019 05:00:00 9,9 9,1 8,7 18,0 19,2 10 5 13 7 Z 1023,3 20 0 0,0
10.10.2019 04:00:00 10,9 10,4 8,7 18,2 19,2 9 5 14 8 Z 1023,1 20 0 0,0
10.10.2019 03:00:00 10,5 9,9 8,0 18,3 19,2 10 6 14 7 Z 1023,1 20 0 0,2
10.10.2019 02:00:00 10,7 9,9 7,9 18,4 19,2 8 4 10 5 Z 1023,2 20 0 0,0
10.10.2019 01:00:00 11,8 10,9 8,5 18,5 19,2 6 3 10 5 ZZW 1023,4 20 0 0,0
10.10.2019 00:00:00 13,5 11,5 11,4 18,6 19,2 4 2 13 7 ZW 1023,1 20 0 0,0
09.10.2019 23:00:00 14,6 11,9 13,7 18,7 19,2 9 5 18 10 WZW 1022,9 20 0 0,0
09.10.2019 22:00:00 14,6 11,9 12,5 18,7 19,2 8 4 16 8 ZW 1022,8 20 0 0,0
09.10.2019 21:00:00 14,6 11,2 12,6 18,8 19,2 5 3 18 10 ZW 1022,8 20 0 0,0

tt = temperatuur
td = dauwpunt
tt 5cm = temperatuur 5cm
tt -20cm = temperatuur -20cm
tt -100cm = temperatuur -100cm
ff = windsnelheid
fx = windstoten
dd = windrichting
ppp = luchtdruk
vv = zicht
sd = Zonneschijnduur
rr = neerslag

Weerstations in de omgeving